Date String (YYYY-MM-DD hh:mm:ss) UTC,Instrument flags,Ambient pressure (hPa),Sample flow (lpm),Bypass flow (lpm),Sample temperature (°C),Ambient temperature (°C),ASC tube jacket temperature (°C),LED temperature (°C),Box temperature (°C),Sample RH (%),Span deviation,Mass concentration (μg/m³),Mass concentration (μg/m³),Mass concentration (μg/m³)
DateTimeUTC,F1_M11,P_M11,Q1_M11,Q2_M11,T1_M11,T2_M11,T3_M11,T4_M11,T5_M11,U1_M11,ZSPAN_M11,X0_M11,X2_M11,X1_M11
2022-05-11 21:00:00,,0819.2,4.99,0.00,29.2,26.7,00.0,38.1,30.9,09.3,0000.0,0016.85,0005.28,0003.35
2022-05-11 21:01:00,,0819.2,5.00,0.00,29.2,27.1,00.0,38.1,31.0,09.4,0000.0,0016.73,0005.07,0003.26
2022-05-11 21:02:00,,0819.2,5.00,0.00,29.3,27.5,00.0,38.1,31.1,08.9,0000.0,0016.88,0004.87,0003.16
2022-05-11 21:03:00,,0819.2,5.00,0.00,29.3,27.9,00.0,38.1,31.2,09.0,0000.0,0016.61,0004.69,0003.04
2022-05-11 21:04:00,,0819.2,5.01,0.00,29.4,28.1,00.0,38.1,31.3,09.1,0000.0,0016.43,0004.60,0002.94
2022-05-11 21:05:00,,0819.2,5.01,0.00,29.4,28.3,00.0,38.2,31.3,09.0,0000.0,0017.08,0004.56,0002.87
2022-05-11 21:06:00,,0819.2,5.00,0.00,29.5,28.5,00.0,38.2,31.4,08.5,0000.0,0018.10,0004.48,0002.78
2022-05-11 21:07:00,,0819.2,5.01,0.00,29.5,27.7,00.0,38.2,31.2,09.3,0000.0,0019.09,0004.44,0002.69
2022-05-11 21:08:00,,0819.2,5.00,0.00,29.3,25.6,00.0,38.2,30.7,09.2,0000.0,0017.98,0004.34,0002.62
2022-05-11 21:09:00,,0819.1,4.99,0.00,29.2,25.4,00.0,38.2,30.7,09.3,0000.0,0017.08,0004.26,0002.60
2022-05-11 21:10:00,,0819.1,5.01,0.00,29.2,25.8,00.0,38.2,30.8,09.9,0000.0,0016.60,0004.24,0002.58
2022-05-11 21:11:00,,0819.1,5.00,0.00,29.1,26.3,00.0,38.1,30.8,09.0,0000.0,0016.26,0004.27,0002.59
2022-05-11 21:12:00,,0819.1,4.99,0.00,29.2,26.8,00.0,38.1,30.9,09.3,0000.0,0016.23,0004.35,0002.60
2022-05-11 21:13:00,,0819.1,5.01,0.00,29.2,27.2,00.0,38.1,31.0,08.9,0000.0,0015.65,0004.40,0002.60
2022-05-11 21:14:00,,0819.1,5.00,0.00,29.2,27.6,00.0,38.1,31.1,08.8,0000.0,0014.97,0004.42,0002.60
2022-05-11 21:15:00,,0819.0,5.00,0.00,29.3,27.9,00.0,38.1,31.2,09.1,0000.0,0013.77,0004.41,0002.59
2022-05-11 21:16:00,,0819.0,5.00,0.00,29.3,28.2,00.0,38.1,31.2,09.0,0000.0,0013.50,0004.35,0002.57
2022-05-11 21:17:00,,0818.9,5.01,0.00,29.4,28.4,00.0,38.1,31.3,09.3,0000.0,0012.85,0004.35,0002.58
2022-05-11 21:18:00,,0818.9,5.00,0.00,29.5,28.5,00.0,38.2,31.4,09.1,0000.0,0012.08,0004.35,0002.59
2022-05-11 21:19:00,,0819.0,4.99,0.00,29.4,27.0,00.0,38.2,31.1,09.8,0000.0,0011.68,0004.35,0002.58
2022-05-11 21:20:00,,0819.0,5.01,0.00,29.3,25.4,00.0,38.2,30.7,09.8,0000.0,0011.79,0004.37,0002.55
2022-05-11 21:21:00,,0819.0,5.00,0.00,29.2,25.5,00.0,38.2,30.7,09.1,0000.0,0011.61,0004.31,0002.52
2022-05-11 21:22:00,,0818.9,4.99,0.00,29.2,25.9,00.0,38.1,30.8,08.5,0000.0,0012.26,0004.28,0002.49
2022-05-11 21:23:00,,0818.9,5.00,0.00,29.1,26.4,00.0,38.1,30.8,08.5,0000.0,0013.09,0004.18,0002.43
2022-05-11 21:24:00,,0818.9,4.99,0.00,29.1,26.9,00.0,38.1,30.9,08.4,0000.0,0013.19,0004.16,0002.39
2022-05-11 21:25:00,,0818.9,4.99,0.00,29.2,27.3,00.0,38.1,31.0,08.7,0000.0,0013.61,0004.10,0002.34
2022-05-11 21:26:00,,0818.9,5.00,0.00,29.2,27.7,00.0,38.1,31.1,08.6,0000.0,0013.57,0004.01,0002.29
2022-05-11 21:27:00,,0818.9,5.00,0.00,29.3,28.0,00.0,38.1,31.2,08.4,0000.0,0013.38,0004.04,0002.25
2022-05-11 21:28:00,,0818.9,4.99,0.00,29.3,28.2,00.0,38.1,31.3,08.4,0000.0,0013.13,0004.06,0002.22
2022-05-11 21:29:00,,0818.9,5.00,0.00,29.4,28.4,00.0,38.1,31.3,08.3,0000.0,0013.34,0004.03,0002.20
2022-05-11 21:30:00,,0819.0,5.00,0.00,29.4,28.6,00.0,38.1,31.4,09.1,0000.0,0013.52,0004.06,0002.19
2022-05-11 21:31:00,,0819.0,4.99,0.00,29.5,28.5,00.0,38.2,31.4,09.1,0000.0,0013.60,0004.02,0002.17
2022-05-11 21:32:00,,0818.9,5.01,0.00,29.4,26.6,00.0,38.2,31.0,08.2,0000.0,0014.15,0003.99,0002.16
2022-05-11 21:33:00,,0818.8,5.00,0.00,29.3,25.3,00.0,38.2,30.6,08.4,0000.0,0013.57,0003.96,0002.14
2022-05-11 21:34:00,,0818.8,5.00,0.00,29.2,25.6,00.0,38.2,30.7,08.7,0000.0,0013.13,0003.96,0002.14
2022-05-11 21:35:00,,0818.8,5.01,0.00,29.2,26.1,00.0,38.1,30.8,08.8,0000.0,0013.09,0003.92,0002.14
2022-05-11 21:36:00,,0818.8,4.98,0.00,29.2,26.6,00.0,38.1,30.9,09.2,0000.0,0013.92,0003.97,0002.15
2022-05-11 21:37:00,,0818.8,5.01,0.00,29.2,27.0,00.0,38.1,31.0,09.3,0000.0,0014.58,0004.01,0002.17
2022-05-11 21:38:00,,0818.8,5.00,0.00,29.2,27.4,00.0,38.1,31.1,08.7,0000.0,0015.07,0003.99,0002.17
2022-05-11 21:39:00,,0818.8,5.00,0.00,29.3,27.8,00.0,38.1,31.1,09.6,0000.0,0015.08,0003.91,0002.16
2022-05-11 21:40:00,,0818.8,5.00,0.00,29.3,28.0,00.0,38.1,31.2,10.1,0000.0,0015.53,0003.94,0002.16
2022-05-11 21:41:00,,0818.8,5.00,0.00,29.4,28.3,00.0,38.1,31.3,09.7,0000.0,0015.86,0003.90,0002.13
2022-05-11 21:42:00,,0818.8,5.00,0.00,29.4,28.5,00.0,38.1,31.4,08.9,0000.0,0016.50,0003.94,0002.11
2022-05-11 21:43:00,,0818.8,5.00,0.00,29.5,28.6,00.0,38.2,31.4,09.6,0000.0,0016.79,0004.03,0002.12
2022-05-11 21:44:00,,0818.7,5.00,0.00,29.5,28.3,00.0,38.2,31.3,10.1,0000.0,0017.40,0004.08,0002.14
2022-05-11 21:45:00,,0818.7,5.01,0.00,29.4,26.2,00.0,38.2,30.9,09.9,0000.0,0017.35,0004.10,0002.17
2022-05-11 21:46:00,,0818.7,4.99,0.00,29.3,25.3,00.0,38.2,30.7,10.5,0000.0,0017.50,0004.13,0002.21
2022-05-11 21:47:00,,0818.7,5.00,0.00,29.2,25.7,00.0,38.2,30.8,10.8,0000.0,0016.90,0004.21,0002.26
2022-05-11 21:48:00,,0818.6,5.01,0.00,29.2,26.1,00.0,38.1,30.8,11.4,0000.0,0016.69,0004.27,0002.32
2022-05-11 21:49:00,,0818.6,5.00,0.00,29.2,26.6,00.0,38.1,30.9,11.2,0000.0,0017.22,0004.42,0002.40
2022-05-11 21:50:00,,0818.5,5.00,0.00,29.2,27.1,00.0,38.1,31.0,11.3,0000.0,0017.30,0004.52,0002.46
2022-05-11 21:51:00,,0818.6,5.00,0.00,29.2,27.5,00.0,38.1,31.1,10.5,0000.0,0016.48,0004.62,0002.53
2022-05-11 21:52:00,,0818.5,5.00,0.00,29.3,27.8,00.0,38.1,31.2,10.4,0000.0,0016.62,0004.74,0002.62
2022-05-11 21:53:00,,0818.5,4.99,0.00,29.3,28.1,00.0,38.1,31.2,10.9,0000.0,0016.83,0004.84,0002.72
2022-05-11 21:54:00,,0818.5,5.00,0.00,29.4,28.3,00.0,38.1,31.3,11.8,0000.0,0017.01,0004.88,0002.81
2022-05-11 21:55:00,,0818.5,5.00,0.00,29.4,28.5,00.0,38.2,31.4,11.8,0000.0,0016.74,0005.03,0002.93
2022-05-11 21:56:00,,0818.5,4.99,0.00,29.5,28.6,00.0,38.2,31.4,11.7,0000.0,0017.47,0005.16,0003.02
2022-05-11 21:57:00,,0818.4,4.99,0.00,29.5,28.0,00.0,38.2,31.3,11.5,-001.0,0017.85,0005.21,0003.08
2022-05-11 21:58:00,,0818.4,5.01,0.00,29.4,25.8,00.0,38.2,30.8,11.6,0000.0,0017.98,0005.15,0003.09
2022-05-11 21:59:00,,0818.4,4.99,0.00,29.2,25.2,00.0,38.2,30.6,11.2,-000.8,0018.23,0005.09,0003.09
